This is the latest recevied weather packets stored in our database for station/object VK4TW-13. If no packets are shown the sender has not sent any weather packets the latest 10 day(s).
| Time | Temp. | Humidity | Pressure | Rain* | Wind** | Luminosity | Snow |
|---|---|---|---|---|---|---|---|
| 1788312825 | 27.22° C | 100% | 1022.6 hPa | 0 mm | - | - | - |
| 1788312220 | 27.22° C | 100% | 1022.9 hPa | 0 mm | - | - | - |
| 1788311630 | 26.67° C | 100% | 1023.1 hPa | 0 mm | - | - | - |
| 1788311030 | 26.11° C | 100% | 1023.4 hPa | 0 mm | - | - | - |
| 1788310428 | 25.56° C | 100% | 1023.6 hPa | 0 mm | - | - | - |
| 1788309827 | 25.56° C | 100% | 1023.7 hPa | 0 mm | - | - | - |
| 1788309227 | 26.11° C | 100% | 1023.8 hPa | 0 mm | - | - | - |
| 1788308625 | 26.11° C | 100% | 1023.8 hPa | 0 mm | - | - | - |
| 1788308024 | 25.56° C | 100% | 1023.9 hPa | 0 mm | - | - | - |
| 1788307425 | 25° C | 100% | 1024 hPa | 0 mm | - | - | - |
| 1788306820 | 24.44° C | 100% | 1024.2 hPa | 0 mm | - | - | - |
| 1788306221 | 23.33° C | 100% | 1024.2 hPa | 0 mm | - | - | - |
| 1788305618 | 23.33° C | 100% | 1024.3 hPa | 0 mm | - | - | - |
| 1788305017 | 22.78° C | 100% | 1024.4 hPa | 0 mm | - | - | - |
| 1788304417 | 22.78° C | 100% | 1024.5 hPa | 0 mm | - | - | - |
| 1788303820 | 22.78° C | 100% | 1024.7 hPa | 0 mm | - | - | - |
| 1788303217 | 22.22° C | 100% | 1024.6 hPa | 0 mm | - | - | - |
| 1788302616 | 21.67° C | 100% | 1024.5 hPa | 0 mm | - | - | - |
| 1788302014 | 21.67° C | 100% | 1024.6 hPa | 0 mm | - | - | - |
| 1788301412 | 21.11° C | 100% | 1024.5 hPa | 0 mm | - | - | - |
| 1788300813 | 20.56° C | 100% | 1024.4 hPa | 0 mm | - | - | - |
| 1788300215 | 19.44° C | 100% | 1024.3 hPa | 0 mm | - | - | - |
| 1788299610 | 18.89° C | 100% | 1024.2 hPa | 0 mm | - | - | - |
| 1788299009 | 17.78° C | 100% | 1024.1 hPa | 0 mm | - | - | - |
| 1788298409 | 17.22° C | 100% | 1023.9 hPa | 0 mm | - | - | - |
* Rain since midnight (hover to see other rain measurements)
** Current wind speed in m/s (hover to see current wind gust speed)